TimeCST,TemperatureF,Dew PointF,Humidity,Sea Level PressureIn,VisibilityMPH,Wind Direction,Wind SpeedMPH,Gust SpeedMPH,PrecipitationIn,Events,Conditions,WindDirDegrees,DateUTC
12:53 AM,35.1,18.0,50,30.16,10.0,SSE,5.8,-,N/A,,Overcast,160,2013-02-17 06:53:00
1:53 AM,35.1,17.1,48,30.14,10.0,SE,8.1,-,N/A,,Overcast,140,2013-02-17 07:53:00
2:53 AM,35.1,16.0,46,30.12,10.0,SSE,8.1,-,N/A,,Overcast,160,2013-02-17 08:53:00
3:53 AM,36.0,15.1,43,30.11,10.0,SE,6.9,-,N/A,,Overcast,140,2013-02-17 09:53:00
4:53 AM,33.1,15.1,48,30.11,10.0,SSE,9.2,-,N/A,,Clear,150,2013-02-17 10:53:00
5:53 AM,33.1,15.1,48,30.11,10.0,SE,9.2,-,N/A,,Clear,140,2013-02-17 11:53:00
6:53 AM,32.0,15.1,50,30.11,10.0,SE,9.2,-,N/A,,Clear,140,2013-02-17 12:53:00
7:53 AM,36.0,17.1,46,30.11,10.0,SE,9.2,-,N/A,,Clear,140,2013-02-17 13:53:00
8:53 AM,42.1,19.0,40,30.10,10.0,SSE,10.4,-,N/A,,Clear,150,2013-02-17 14:53:00
9:53 AM,46.9,19.9,34,30.09,10.0,South,12.7,-,N/A,,Clear,170,2013-02-17 15:53:00
10:53 AM,52.0,21.9,31,30.07,10.0,SSE,12.7,-,N/A,,Clear,150,2013-02-17 16:53:00
11:53 AM,55.0,23.0,29,30.04,10.0,SE,12.7,-,N/A,,Clear,140,2013-02-17 17:53:00
12:53 PM,60.1,24.1,25,30.00,10.0,South,13.8,-,N/A,,Clear,170,2013-02-17 18:53:00
1:53 PM,63.0,24.1,23,29.95,10.0,SSE,12.7,-,N/A,,Clear,160,2013-02-17 19:53:00
2:53 PM,66.0,23.0,20,29.93,10.0,SW,12.7,20.7,N/A,,Clear,230,2013-02-17 20:53:00
3:53 PM,64.9,23.0,20,29.92,10.0,SW,10.4,20.7,N/A,,Clear,220,2013-02-17 21:53:00
4:53 PM,62.1,24.1,23,29.92,10.0,SSW,10.4,20.7,N/A,,Clear,200,2013-02-17 22:53:00
5:53 PM,55.0,27.0,34,29.93,10.0,South,11.5,-,N/A,,Clear,170,2013-02-17 23:53:00
6:53 PM,52.0,28.0,40,29.94,10.0,SE,10.4,-,N/A,,Clear,140,2013-02-18 00:53:00
7:53 PM,48.9,28.9,46,29.93,10.0,SE,6.9,-,N/A,,Clear,130,2013-02-18 01:53:00
8:53 PM,50.0,30.0,46,29.92,10.0,SSE,11.5,-,N/A,,Clear,150,2013-02-18 02:53:00
9:53 PM,50.0,30.9,48,29.89,10.0,SE,11.5,-,N/A,,Clear,140,2013-02-18 03:53:00
11:53 PM,54.0,30.9,41,29.86,10.0,South,10.4,25.3,N/A,,Clear,190,2013-02-18 05:53:00